PHNLTNCM

Guest
Details From PHNL - Honolulu Intl
To TNCM - St Maarten - Princess Juliana Intl
Flight Number -
Tags Decoded
Created
Modified
Stats Distance 5,273 nm / 9,766 km
Max Altitude 0 ft / 0 m
Waypoints 2
Social Downloads 2
Likes 0
Share VATSIM

Download

Looking for another format? Having issues loading an existing format? Contact us
Advertisement - Login to hide

Notes

Decoded

Route

PHNL TNCM

ID Type Via Altitude Latitude Longitude Leg Dist Tot Dist Heading (true) Name
O PHNL APT - 0 ft / 0 m 21.31833˚ -157.92332˚ - 0 nm - Honolulu Intl
O TNCM APT - 0 ft / 0 m 18.03937˚ -63.11961˚ 5272 nm 5272 nm 71° / 112° -

Altitude Profile

Advertisement - Login to hide

Weather


0- 5 10 15 20 25 30 35+ Temperature / ° C

Clouds and Precipitation
Forecast for 2017-12-13 06:00 UTC. Updated 26 minutes ago

Ground ~20,000 ft ~40,000 ft Winds

PHNL

Details ICAO PHNL (HNL)
Name Honolulu Intl
Region USA (Hawaii)
Timezone Pacific/Honolulu (UTC-10.0)
Stats Elevation 13 ft / 4 m (AMSL)
Location 21.319376° -157.921281°
Runways 4
Magnetic Variation 9.483° E

METAR

PHNL 130053Z 25007KT 200V280 10SM FEW015 SCT037 BKN070 24/21 A2992

Decode

TAF

PHNL 122329Z 1300/1406 25011KT P6SM -SHRA SCT020 BKN045 TEMPO 1300/1301 4SM SHRA BR BKN025 FM130100 32012KT P6SM VCSH SCT025 BKN040 FM130500 32007KT P6SM FEW025 SCT040 FM132000 01015G25KT P6SM FEW030 FEW050 FM140500 02008KT P6SM FEW030 FEW050

Decode

Departure Runways

ID Width Length Bearing (true) Bearing (mag) Surface Threshold Offset Overrun Length
04L 150 ft / 46 m 6,958 ft / 2,121 m 52.84° 43.36° Asphalt 0 ft / 0 m 215 ft / 66 m
04R 150 ft / 46 m 9,008 ft / 2,746 m 52.86° 43.38° Asphalt 0 ft / 0 m 200 ft / 61 m
08L 150 ft / 46 m 12,285 ft / 3,744 m 90.00° 80.52° Asphalt 0 ft / 0 m 1,000 ft / 305 m
08R 200 ft / 61 m 11,985 ft / 3,653 m 90.00° 80.52° Asphalt 0 ft / 0 m 700 ft / 213 m
22L 150 ft / 46 m 9,008 ft / 2,746 m 232.86° 223.38° Asphalt 0 ft / 0 m 215 ft / 66 m
22R 150 ft / 46 m 6,958 ft / 2,121 m 232.85° 223.37° Asphalt 0 ft / 0 m 0 ft / 0 m
26L 200 ft / 61 m 11,985 ft / 3,653 m 270.01° 260.53° Asphalt 0 ft / 0 m 700 ft / 213 m
26R 150 ft / 46 m 12,285 ft / 3,744 m 270.01° 260.53° Asphalt 0 ft / 0 m 655 ft / 200 m

TNCM

Details ICAO TNCM (SXM)
Name St Maarten - Princess Juliana Intl
Region Caribbean Netherlands, Aruba, Curaçao, Sint Maarten
Timezone Unknown (UTC+0.0)
Stats Elevation 12 ft / 4 m (AMSL)
Location 18.040889° -63.108974°
Runways 1
Magnetic Variation 14.325° W

METAR

TNCM 130100Z 09004KT 060V120 CAVOK 26/21 Q1015 A2997

Decode

TAF

TAF TNCM 122320Z 1300/1324 13007KT P6SM FEW020 FM131500 15008KT P6SM SCT030

Decode

Destination Runways

ID Width Length Bearing (true) Bearing (mag) Surface Threshold Offset Overrun Length
10 148 ft / 45 m 7,464 ft / 2,275 m 81.43° 95.75° Asphalt 0 ft / 0 m 151 ft / 46 m
28 148 ft / 45 m 7,464 ft / 2,275 m 261.44° 275.76° Asphalt 397 ft / 121 m 0 ft / 0 m

Popular Alternatives